Wind_Speed
1 1 1 1 1 1 2 2 1 2 3 2 1 2 2 2 2 2 2 2 2 3 4 5 5 6 7 8 10 11 13 13 11 9 5 3 2 4 3 1 2 4 4 4 3 3 3 5 5 6 4 3 4 2 3 3 2 4 3 3 2 2 2 4 6 6 2 0 2 2 1 3 2 5 2 1 3 3 4 5 4 3 6 8 8 9 11 11
1 0 1 1 1 1 2 1 1 2 3 2 1 1 2 1 1 1 2 3 3 4 5 5 6 7 8 9 10 12 14 13 8 5 5 2 3 5 3 2 3 5 5 4 3 3 4 2 3 6 5 3 3 2 2 2 3 3 3 3 1 5 3 4 6 5 2 1 2 1 1 1 0 3 2 2 4 4 5 6 5 4 2 7 13 15 15 15
2 1 1 1 2 1 1 1 1 2 3 2 1 1 1 1 0 1 2 3 4 4 5 6 6 7 8 9 10 11 14 10 4 4 5 3 5 4 2 2 4 6 4 4 4 4 6 4 3 5 4 3 2 2 3 3 2 1 3 3 3 5 2 3 5 5 4 2 1 1 1 1 2 3 2 2 6 5 2 3 2 3 4 5 10 14 17 18
2 2 2 2 2 2 1 2 1 2 2 1 1 1 1 1 0 1 3 4 4 5 5 6 7 7 8 8 8 10 11 6 2 2 3 4 5 4 3 3 5 6 4 5 6 6 7 6 6 5 4 3 3 3 3 3 1 2 3 3 4 2 1 3 5 6 4 3 3 1 2 3 3 2 1 1 4 6 1 2 1 2 3 3 5 10 16 18
3 3 3 3 3 2 2 2 2 1 1 1 1 0 0 1 1 2 3 5 5 6 6 6 7 6 7 7 7 8 8 5 0 2 3 3 4 4 3 4 5 5 4 5 7 7 7 5 6 6 4 2 4 4 1 3 1 1 0 3 4 4 1 4 4 4 4 3 4 2 1 2 1 1 3 5 3 4 1 2 2 2 2 3 4 7 12 16
4 4 4 4 4 4 3 3 2 2 1 1 1 0 1 1 2 3 3 5 5 6 6 6 6 6 6 5 5 5 5 2 3 2 1 1 3 3 3 4 4 4 4 5 6 6 5 5 6 4 3 3 2 3 0 3 2 0 1 1 3 4 3 3 2 3 5 4 2 3 2 0 1 3 3 6 4 1 2 2 3 5 4 4 6 8 9 11
5 5 4 5 6 5 4 3 3 3 2 1 1 1 1 2 3 4 4 5 5 5 6 6 6 6 5 4 4 5 5 2 4 2 3 2 3 3 3 3 3 4 4 5 6 4 4 6 5 3 4 3 1 2 0 3 4 3 1 2 2 4 4 3 1 2 5 4 4 3 1 1 2 3 1 3 1 2 2 3 6 7 8 7 8 9 8 9
6 6 5 6 7 5 4 4 3 3 2 2 2 2 2 2 3 4 4 5 5 6 6 6 6 5 4 2 3 5 2 4 2 2 4 3 5 4 4 2 3 4 4 4 4 5 4 4 3 3 3 1 2 2 1 2 4 2 2 2 1 3 5 4 3 4 5 5 3 3 1 6 6 3 1 2 2 3 3 5 6 6 8 9 9 9 8 9
7 6 6 7 6 5 4 4 4 4 3 3 3 2 2 3 3 4 4 5 5 5 5 5 5 4 2 3 6 3 3 3 1 1 2 3 5 5 4 2 2 4 5 4 4 6 3 2 3 3 3 2 3 3 0 0 1 2 3 1 1 3 5 4 4 5 5 4 3 3 2 4 3 2 1 2 4 2 3 5 5 5 7 8 7 8 9 9
7 6 7 7 6 5 5 5 5 5 4 4 3 2 2 2 3 4 4 5 5 5 5 4 4 3 1 3 6 1 3 1 1 1 1 3 5 5 4 2 2 4 6 5 5 6 3 4 5 5 5 3 2 2 0 2 0 2 2 2 3 5 6 2 4 4 3 3 4 4 3 2 2 1 1 1 4 3 5 6 5 6 7 7 6 7 9 10
7 7 7 7 7 7 7 6 6 5 4 4 3 2 2 2 3 4 4 4 4 4 5 3 3 2 2 4 6 2 3 1 1 1 1 3 4 4 3 2 2 4 6 6 6 6 2 6 10 6 2 2 2 2 2 2 2 1 2 4 5 6 6 2 3 5 2 1 5 6 3 1 1 1 2 2 3 3 6 6 6 6 5 5 5 6 8 9
9 8 7 7 8 8 8 7 6 4 3 3 3 2 1 2 3 4 4 4 4 4 4 3 2 1 2 3 3 6 4 2 2 1 2 3 4 4 3 3 4 4 5 5 6 6 3 8 11 6 0 3 3 1 1 1 2 1 3 3 7 8 6 4 3 3 3 0 4 5 1 3 2 2 1 1 3 4 6 5 5 4 3 3 4 4 6 8
12 10 7 8 8 8 8 7 5 3 3 4 4 2 2 3 3 4 4 4 4 3 3 2 1 2 3 1 4 7 7 5 3 2 3 4 4 5 5 5 5 5 4 4 6 7 5 8 10 6 3 5 2 1 3 3 3 1 3 2 5 7 5 5 2 4 3 0 1 1 2 4 5 4 1 2 4 3 5 4 3 3 3 3 3 3 4 8
13 11 9 8 9 9 9 7 5 3 4 5 3 1 2 3 3 4 4 4 4 3 2 0 2 4 3 2 4 4 7 7 5 4 5 6 7 7 7 6 5 5 4 5 6 6 6 9 9 7 3 3 2 2 4 5 3 1 2 2 2 2 5 6 2 4 3 1 2 2 2 4 4 3 2 1 3 3 3 3 2 2 3 2 2 3 3 6
13 12 10 9 9 10 9 7 5 3 4 5 2 2 3 3 4 4 4 3 2 1 1 2 4 4 2 4 4 2 5 5 6 7 7 9 9 8 7 7 8 8 7 7 9 9 9 10 8 6 1 2 3 4 3 4 3 3 1 3 2 1 5 8 3 0 1 2 4 3 2 4 5 4 4 2 2 3 3 1 2 2 3 3 2 3 3 4
13 12 11 9 9 9 9 6 3 2 4 4 2 2 3 3 4 3 2 1 2 2 3 3 4 4 1 3 2 2 4 4 6 8 9 10 8 6 9 10 9 9 9 9 11 11 9 7 5 3 2 2 4 4 3 3 4 3 0 3 3 2 3 5 2 1 1 1 4 2 2 3 2 4 4 3 1 3 4 2 0 1 2 3 2 3 3 4
13 12 12 9 9 9 8 6 3 3 5 3 1 2 3 3 3 1 1 3 4 4 4 4 5 3 1 2 1 3 2 4 6 8 10 9 6 9 11 9 7 8 9 8 8 6 5 5 1 0 3 3 3 4 3 2 4 3 1 2 4 3 3 3 2 2 3 2 1 3 1 5 3 4 3 4 2 3 4 3 1 1 2 2 2 3 4 4
15 13 12 10 9 9 8 6 5 4 5 2 2 2 2 2 0 2 4 6 6 5 4 2 4 1 3 2 2 2 2 4 6 7 9 7 7 10 9 6 6 8 7 5 3 3 3 4 2 1 3 2 3 5 3 5 4 4 3 2 3 3 4 4 3 2 3 3 2 3 3 8 7 4 1 5 2 3 4 3 1 2 2 2 3 3 4 4
17 15 12 10 9 9 9 7 5 5 5 1 2 1 2 2 1 2 4 5 4 2 1 3 3 3 3 2 1 3 5 6 6 6 8 8 9 9 8 7 7 7 5 2 1 1 1 3 4 1 2 4 6 8 9 8 6 7 6 4 4 4 4 4 4 4 2 3 4 4 5 9 10 5 1 3 2 2 2 1 2 2 2 2 3 3 3 3
18 16 12 10 9 10 10 8 4 5 5 2 3 3 3 2 2 2 2 2 5 4 4 6 6 3 2 1 3 7 7 6 3 4 8 10 11 11 6 5 6 6 3 3 2 1 3 3 3 6 7 9 11 11 8 4 6 6 5 4 4 5 5 3 2 4 1 1 5 5 6 9 11 8 1 2 2 2 1 1 2 2 2 2 2 2 3 3
19 15 11 10 10 10 10 9 5 5 5 3 4 4 2 3 2 2 3 4 9 9 5 6 6 4 3 3 9 11 6 2 2 3 10 10 11 10 1 3 5 2 1 3 3 1 3 4 10 9 7 9 10 8 5 4 5 5 4 4 3 4 6 4 1 4 2 2 4 1 2 9 10 7 2 1 1 1 0 0 1 1 1 1 2 2 3 2
17 13 12 11 9 9 8 9 6 5 6 4 4 3 2 3 2 1 0 2 8 10 9 5 3 6 4 4 10 10 4 1 0 2 10 9 5 5 1 4 5 4 1 2 3 2 1 6 11 6 5 6 3 5 6 4 4 3 3 3 3 3 3 5 2 3 2 3 3 3 3 9 9 4 0 1 1 1 1 1 2 1 1 1 1 1 2 2
16 14 13 11 10 9 9 10 7 5 7 5 4 4 2 1 2 2 2 0 5 4 5 5 4 6 4 3 9 10 3 4 4 5 11 10 3 4 5 5 5 4 3 5 5 4 3 7 9 5 8 7 4 3 6 4 2 3 3 3 4 3 2 3 3 2 1 2 1 2 4 9 6 2 1 1 1 2 1 2 2 2 2 1 1 1 0 1
18 17 15 12 12 10 9 10 7 8 9 8 9 9 4 2 3 3 1 0 4 4 4 6 5 5 6 4 10 13 5 4 4 5 14 13 4 3 5 5 5 5 5 8 8 7 6 6 2 6 7 7 5 3 6 5 3 4 5 6 5 4 5 6 3 2 2 3 1 1 4 7 4 2 3 1 1 1 1 2 2 1 1 1 1 1 1 1
21 21 18 14 13 12 11 9 9 12 9 8 12 12 8 4 4 3 1 2 3 5 3 4 3 5 7 7 12 12 3 2 4 5 13 14 7 4 3 3 4 5 7 7 6 6 7 4 4 7 4 6 7 4 6 7 4 4 6 10 9 7 7 5 1 3 2 3 1 2 1 4 4 4 5 2 1 1 1 1 1 1 1 1 2 1 1 1
25 26 22 18 15 14 12 7 10 12 8 9 12 9 10 8 5 4 3 3 4 4 1 3 4 6 8 6 8 8 3 3 3 3 10 11 7 5 3 2 1 4 7 6 3 3 4 2 4 7 5 6 6 4 6 7 5 3 5 9 10 7 6 5 4 3 1 3 2 2 3 3 5 6 4 1 2 3 2 2 3 3 2 2 2 2 1 1
25 29 26 21 18 18 12 4 9 11 4 9 11 10 13 11 8 5 3 3 5 3 4 2 1 6 8 4 5 7 2 3 2 3 4 5 3 3 3 4 2 2 4 4 1 2 3 2 3 5 6 6 5 5 6 7 6 3 3 5 7 7 7 7 6 4 3 2 2 1 3 2 4 6 3 1 2 5 5 5 4 4 4 4 4 3 2 2
24 28 26 23 21 22 15 4 9 13 5 6 10 14 15 12 9 4 4 1 5 2 4 1 1 3 3 1 3 5 2 1 4 2 1 3 2 2 1 6 6 4 3 5 4 3 3 5 6 7 5 5 5 4 8 10 5 4 1 5 6 6 6 5 6 3 1 2 3 3 1 1 5 5 3 3 3 7 8 7 6 6 6 5 5 5 3 3
25 25 24 23 21 23 20 10 8 12 10 6 11 16 16 13 7 4 4 3 2 2 2 1 2 2 2 3 3 3 1 2 2 2 2 3 1 3 2 5 6 6 1 2 5 3 1 4 6 8 5 5 3 1 6 9 4 3 6 7 5 5 5 4 4 3 3 1 5 5 4 3 4 4 2 2 3 8 6 5 7 7 6 6 6 5 4 3
29 27 24 23 22 24 24 19 13 10 8 9 14 18 16 9 4 4 3 5 1 2 0 1 2 1 5 6 0 1 2 2 0 1 2 1 3 5 2 2 6 6 1 4 1 2 1 2 2 4 4 5 4 3 2 3 3 6 7 6 6 5 4 3 2 3 2 3 6 6 6 4 3 4 4 3 4 5 3 3 5 6 6 7 6 5 5 4
33 32 29 28 27 26 21 17 19 13 8 13 17 17 12 3 4 4 7 3 2 1 1 1 1 3 8 8 2 2 3 2 1 3 3 1 2 4 2 2 4 4 2 3 2 3 3 1 2 2 2 4 6 5 4 3 4 5 4 4 4 3 3 3 4 3 1 5 5 4 2 4 4 4 4 5 5 5 5 5 8 10 10 9 7 6 5 5
37 33 31 30 28 28 21 14 19 17 10 16 18 10 5 2 1 8 6 1 0 3 4 3 3 5 7 4 2 4 4 2 2 4 4 3 4 4 3 4 5 3 1 4 2 3 2 3 3 1 1 4 6 5 4 3 2 4 4 5 4 2 2 2 3 1 3 6 4 2 1 3 5 6 7 7 6 6 6 4 7 11 11 9 8 7 6 5
37 32 30 31 29 31 27 18 19 20 14 17 13 3 4 4 8 11 7 2 1 2 3 3 2 4 6 4 2 3 3 2 4 3 2 3 4 4 3 2 6 4 1 5 3 0 3 4 1 3 1 3 7 6 3 1 2 4 5 5 4 2 1 2 3 2 3 4 2 2 2 2 3 5 7 7 4 3 3 2 2 5 8 9 8 7 6 6
34 31 29 31 30 31 32 24 21 23 20 15 8 2 5 8 9 7 10 7 1 2 3 3 4 5 6 4 3 4 3 2 5 4 2 4 4 5 5 4 5 4 4 3 3 4 3 4 4 6 3 5 9 7 6 6 5 4 4 5 4 4 4 4 4 3 3 2 2 2 2 3 3 3 5 3 3 3 2 2 1 1 4 6 6 6 6 7
32 32 30 31 33 33 34 29 25 28 23 12 6 6 9 12 8 4 8 7 3 2 3 3 5 5 3 2 2 4 4 2 4 5 3 5 5 5 5 6 7 4 5 4 2 3 3 5 5 2 1 7 9 4 4 7 4 2 2 5 3 4 4 2 3 4 2 2 3 2 3 3 3 2 3 2 3 3 2 1 1 2 3 6 6 7 8 7
33 34 31 32 35 36 37 33 31 34 23 8 6 9 11 12 6 3 5 6 5 6 6 2 3 5 3 2 2 5 2 1 5 4 2 3 3 5 4 5 9 9 7 6 3 2 2 4 4 1 2 3 6 4 3 3 3 2 2 4 4 3 6 3 1 1 3 1 3 2 3 4 1 3 3 4 5 3 1 2 2 4 5 7 8 8 9 9
35 30 27 30 34 37 39 36 35 35 19 7 10 11 10 10 6 4 4 4 5 9 9 4 4 6 6 4 4 6 3 1 4 4 3 3 3 6 6 4 7 13 11 5 2 4 4 2 4 1 1 2 2 4 4 2 3 6 3 5 3 2 4 3 1 2 3 3 4 2 4 3 2 2 3 4 5 6 3 2 2 4 6 9 9 9 10 9
34 24 19 29 38 38 40 40 36 27 10 5 13 14 10 8 6 5 4 4 5 8 8 8 7 6 7 6 4 7 6 4 5 5 4 4 4 7 10 5 6 15 15 6 1 3 4 1 4 0 2 1 1 3 3 4 1 4 4 3 4 3 2 2 2 2 1 3 5 2 4 4 4 4 3 4 9 9 6 4 4 7 10 10 10 11 11 9
27 14 10 28 41 39 41 42 31 15 4 5 12 13 9 7 5 6 7 6 5 7 9 8 6 4 5 7 5 6 8 7 7 6 4 4 4 6 11 7 5 12 14 10 4 2 3 3 3 1 1 1 1 2 4 3 0 2 2 2 2 2 4 3 3 3 3 2 4 3 2 3 5 6 9 11 13 11 8 7 9 11 12 11 11 11 12 11
18 7 6 26 42 41 42 36 17 6 5 8 12 10 7 6 5 5 8 8 5 5 7 7 7 5 5 5 4 5 7 6 8 7 4 6 5 5 9 8 5 8 8 8 5 1 3 3 3 1 1 2 3 4 7 9 6 3 4 4 2 1 2 1 1 3 3 3 2 3 4 3 3 4 8 10 9 9 10 10 11 10 11 11 10 10 11 11
12 7 5 28 47 45 37 20 7 6 8 11 14 13 7 5 5 5 6 6 4 2 3 5 7 7 6 6 4 4 6 5 7 6 4 6 6 4 7 9 8 8 7 5 6 4 3 4 4 3 2 4 5 5 4 6 7 6 6 7 7 5 4 2 3 2 2 2 4 3 5 5 3 2 4 4 3 4 7 8 8 8 10 10 9 8 9 8
9 7 8 36 54 46 26 7 6 8 8 11 13 10 6 4 5 8 6 4 3 1 2 2 4 5 5 6 5 6 7 5 7 7 5 8 9 6 6 8 11 13 10 6 6 5 4 3 4 3 4 5 5 3 1 2 3 3 3 5 7 6 6 5 6 3 2 2 2 3 4 5 2 2 3 3 3 3 4 5 6 6 6 7 6 6 4 4
8 5 12 42 60 44 17 7 10 9 10 13 10 5 6 4 5 8 7 7 5 3 3 2 2 4 4 4 4 7 8 6 8 10 5 6 8 5 4 8 12 13 9 4 3 4 3 3 4 2 3 3 4 4 3 1 2 2 3 3 5 5 4 4 5 3 3 4 3 2 5 5 1 2 3 2 3 3 3 5 5 4 3 5 6 5 5 5
7 2 6 34 57 43 14 10 14 12 13 13 10 8 6 3 6 10 9 9 6 4 5 4 3 4 3 4 5 7 9 7 8 10 5 4 6 1 3 9 12 10 6 3 4 6 4 4 5 2 1 3 4 2 2 2 1 3 3 3 5 5 5 2 2 3 1 5 7 5 8 6 2 2 2 2 1 1 3 3 4 4 4 4 5 5 6 6
3 2 2 14 34 28 13 12 15 14 15 15 14 15 11 4 6 10 10 9 6 5 5 3 3 4 3 4 3 4 8 5 4 5 4 3 3 2 3 8 10 9 4 2 2 7 6 4 6 7 7 7 5 5 4 3 2 2 2 4 6 8 9 5 2 3 4 4 7 7 8 5 2 1 2 3 1 0 3 3 4 5 5 5 5 6 6 7
2 2 1 4 10 10 8 11 13 11 13 15 13 13 16 12 5 4 9 10 7 7 5 1 3 5 4 6 5 4 7 3 1 3 4 5 3 1 1 4 5 4 1 2 3 6 3 2 7 10 9 8 7 6 4 6 6 5 6 8 9 9 11 7 4 5 6 4 5 9 5 3 6 2 2 5 3 3 4 4 4 4 4 5 5 6 6 7
2 2 4 4 3 6 6 8 13 13 13 14 9 8 16 17 7 3 8 9 8 9 5 1 4 7 7 9 8 6 6 4 2 4 5 4 2 1 1 3 4 2 2 3 2 3 3 3 7 8 7 6 5 4 5 6 7 9 9 9 9 8 10 10 8 7 6 5 9 9 6 5 12 6 6 7 5 4 5 4 5 5 5 5 4 5 6 7
2 1 2 1 1 5 8 8 13 15 16 15 9 7 14 16 12 8 7 4 5 10 7 2 8 15 14 12 10 6 7 7 6 6 5 3 3 2 2 2 1 1 3 3 1 3 4 4 5 5 6 4 4 3 4 5 4 5 8 10 11 11 12 13 13 10 9 8 13 8 8 11 12 6 8 8 5 5 5 5 5 5 5 5 5 5 7 7
2 1 2 2 2 2 4 4 9 14 17 16 11 11 15 17 18 13 6 4 4 10 13 12 14 17 16 14 12 9 10 10 10 8 6 4 4 4 3 1 1 2 3 4 1 1 3 3 3 5 5 5 4 4 5 6 4 3 7 11 12 11 12 13 14 11 9 10 11 5 7 12 7 5 8 7 4 4 3 3 4 5 5 5 6 6 7 6
3 2 1 1 1 2 3 1 6 9 11 12 11 12 14 17 19 14 6 7 10 10 12 18 18 15 15 14 13 13 15 15 13 10 10 8 6 4 4 4 3 1 1 3 2 2 3 2 2 4 4 6 4 6 5 6 6 6 11 12 8 6 7 10 10 6 4 8 11 7 10 11 4 5 6 4 3 4 2 2 3 4 5 5 6 6 6 6
3 4 3 2 1 2 1 1 3 6 6 7 7 7 11 16 17 13 6 5 8 9 12 20 19 11 11 14 16 18 18 13 9 9 11 11 9 6 5 4 5 5 4 4 3 3 4 2 2 3 5 5 4 7 6 2 2 6 16 12 8 6 7 8 7 7 8 11 11 9 11 9 4 5 4 3 4 4 5 5 5 5 5 6 6 7 6 6
3 5 4 2 1 2 2 0 2 4 3 3 3 3 5 8 8 10 7 2 0 2 6 14 15 7 8 15 18 15 9 8 7 5 5 5 4 4 4 5 8 8 7 6 4 3 5 4 2 3 5 2 1 4 6 4 1 9 14 10 12 13 11 6 5 10 13 13 10 10 11 6 4 6 5 5 5 6 7 7 6 6 6 6 7 7 6 7
Wind_Direction
258 221 212 251 265 336 295 267 212 180 168 161 145 163 182 187 203 225 268 307 334 338 352 351 354 352 348 350 348 344 341 337 331 332 338 316 235 180 165 138 153 149 151 156 159 156 86 54 35 37 80 61 13 342 16 22 55 56 80 84 90 168 183 177 177 194 155 286 270 30 40 104 355 302 310 70 47 354 336 328 315 25 81 82 50 28 32 40
311 270 270 265 203 338 307 255 180 175 155 134 135 163 174 166 192 270 315 333 339 339 350 347 350 345 344 349 345 345 340 332 335 4 12 350 174 171 171 156 160 151 150 155 157 147 109 58 18 45 59 47 350 340 22 9 50 81 115 75 212 198 200 187 175 195 174 175 261 341 238 101 137 274 347 340 301 6 1 316 348 12 100 46 23 27 37 46
282 276 276 245 204 234 270 197 166 162 139 123 157 154 155 160 256 325 333 331 330 335 341 339 340 338 341 344 346 348 337 337 8 24 22 78 137 145 142 156 165 150 150 152 133 113 117 118 78 66 51 50 358 350 34 14 21 132 111 70 240 217 230 222 191 203 202 166 219 325 56 338 256 238 345 315 294 335 340 269 357 325 292 357 1 15 28 41
278 280 286 268 230 217 221 212 196 163 138 146 176 149 169 162 328 327 330 322 324 327 329 331 330 332 337 341 352 349 341 6 45 330 41 93 124 117 114 146 161 151 149 143 124 102 108 103 75 67 63 50 337 12 50 345 341 127 106 149 213 186 210 225 205 211 211 168 145 109 10 319 269 225 256 146 303 315 267 237 329 310 313 343 336 7 24 35
293 286 290 283 257 229 224 215 203 169 157 177 173 145 90 359 324 324 326 317 319 323 325 327 326 330 335 342 357 351 359 40 270 261 81 101 121 111 123 145 158 160 155 146 130 103 100 87 63 53 55 52 342 28 40 310 83 108 44 177 185 146 205 241 214 207 182 143 123 122 311 294 226 223 193 167 231 283 314 336 15 66 54 18 358 9 23 31
293 280 273 278 268 241 224 208 196 187 194 198 190 270 353 342 317 310 314 316 319 324 328 326 329 336 338 347 354 8 43 55 249 210 110 144 135 116 129 144 149 154 153 150 137 104 83 54 54 56 49 58 8 53 252 306 48 122 301 244 208 173 215 237 208 208 154 126 147 178 230 196 48 296 206 174 214 253 23 11 67 64 59 57 37 31 28 29
284 277 263 267 262 242 214 203 205 203 212 225 255 290 296 324 321 308 313 322 325 331 335 334 338 342 348 358 358 38 71 267 262 224 250 215 181 157 132 152 162 163 158 139 126 110 88 60 72 126 80 62 175 120 106 336 36 86 252 268 210 181 216 217 175 204 164 180 224 172 68 238 218 273 217 154 159 76 63 60 76 64 57 61 49 41 34 33
281 282 265 261 255 243 213 206 213 210 222 238 263 286 287 308 316 314 322 327 335 344 342 340 344 353 4 33 65 40 21 250 248 237 253 216 201 184 153 174 181 187 170 136 130 138 117 81 127 154 77 45 170 119 36 354 35 86 225 259 135 194 243 255 256 246 224 233 222 145 214 236 209 186 145 145 123 90 81 63 64 65 55 51 46 39 32 32
277 281 271 264 252 237 221 216 211 212 224 234 248 271 287 302 310 319 329 334 348 351 346 348 343 356 15 79 88 42 286 226 206 244 241 210 202 187 179 187 184 196 168 144 145 143 145 155 180 177 134 169 152 113 311 295 318 203 189 251 262 280 294 285 256 238 233 238 167 163 226 244 227 149 121 140 141 130 84 62 42 52 50 43 39 32 29 30
270 276 269 262 246 229 224 218 212 217 232 240 247 264 288 298 311 324 334 341 352 351 346 350 343 5 94 106 87 61 253 178 162 220 205 206 196 186 195 191 176 194 164 148 155 143 151 187 168 147 131 128 135 103 182 146 204 188 154 263 259 298 302 259 250 258 242 232 178 191 234 246 261 189 207 191 159 146 76 55 29 51 50 41 38 31 30 28
268 269 259 249 237 227 218 214 213 219 238 253 257 259 283 304 322 327 333 339 347 351 342 340 344 8 124 111 108 196 235 177 216 146 173 200 184 187 196 193 176 182 168 146 163 159 137 171 148 122 123 135 121 43 286 188 94 84 27 306 294 325 306 268 278 291 319 248 174 171 218 289 315 249 232 196 158 113 79 61 31 48 42 34 39 35 33 25
264 262 253 244 233 223 213 209 213 221 251 270 267 262 292 310 322 322 326 336 338 340 332 333 324 191 102 77 155 219 229 190 204 144 172 190 175 182 175 174 160 159 174 146 166 172 134 159 138 103 150 145 127 28 229 173 70 39 35 332 309 346 329 317 330 305 353 302 167 151 257 335 323 257 231 146 137 98 79 64 35 44 32 27 33 35 41 27
258 260 253 245 235 222 210 205 212 231 267 284 279 281 308 309 324 322 321 328 330 332 326 321 245 168 100 7 231 225 230 221 219 184 169 178 169 163 145 150 147 141 164 139 158 168 157 166 137 104 120 114 129 191 113 57 47 292 42 46 312 350 329 310 355 331 346 90 154 118 289 304 289 274 263 168 152 111 68 50 28 30 23 16 22 31 40 30
249 256 255 247 239 225 209 204 210 228 273 289 290 306 316 321 323 319 323 324 328 330 331 78 179 145 109 253 244 228 230 228 224 204 180 177 156 137 128 128 133 135 144 132 137 142 149 155 123 99 101 85 135 136 50 14 23 318 355 46 349 347 287 297 338 342 346 28 44 106 234 272 250 270 334 262 195 144 79 48 20 14 19 6 17 32 32 31
241 250 254 249 243 228 209 201 200 223 275 285 302 328 319 326 322 327 331 325 346 14 75 111 153 129 74 276 255 229 224 213 203 198 184 176 158 133 128 128 123 119 117 116 119 119 128 133 107 91 93 16 84 97 28 349 15 25 309 308 343 175 271 307 324 8 211 312 23 103 218 278 226 242 340 348 219 146 109 80 11 10 10 7 13 31 31 26
236 242 251 250 246 225 200 186 182 239 277 276 316 331 319 328 326 338 346 13 75 105 96 108 145 123 56 267 234 228 220 198 192 191 180 175 171 147 134 126 113 108 108 105 108 111 108 99 79 82 119 68 81 96 50 357 339 359 351 253 270 198 270 317 316 277 193 258 3 56 226 289 224 231 322 7 154 124 121 178 351 34 5 21 20 26 35 23
235 238 245 248 248 223 191 172 173 246 268 263 341 328 323 333 320 333 107 106 108 108 94 116 135 108 270 221 216 269 222 178 178 181 180 176 176 158 138 118 99 104 102 97 105 100 60 54 68 43 61 68 107 105 71 313 280 303 4 237 252 216 215 292 294 334 45 105 344 17 245 266 228 197 311 357 79 126 148 187 174 102 25 29 25 27 35 26
234 238 237 242 246 219 188 178 185 242 257 242 21 336 343 4 324 159 152 132 105 83 70 100 112 74 269 212 193 228 118 142 157 162 172 161 156 156 139 114 107 103 83 62 68 60 22 29 73 70 35 47 134 120 163 227 213 189 187 206 252 242 224 253 261 283 26 35 332 355 294 274 260 194 346 352 33 139 168 176 133 92 51 37 31 35 31 24
233 236 233 242 240 209 189 183 190 246 249 188 73 75 62 44 60 164 163 142 121 113 181 210 150 140 234 240 160 126 108 126 139 148 154 144 145 141 116 103 103 95 89 79 21 69 77 51 64 130 197 190 184 177 196 206 165 163 171 158 190 229 247 231 233 265 348 14 298 271 257 271 271 244 104 357 12 108 159 110 81 57 38 36 35 35 28 28
232 233 232 241 226 202 191 184 195 250 247 169 122 111 87 45 23 304 238 191 212 192 164 189 182 175 241 244 138 132 120 115 121 152 152 150 143 123 87 69 66 61 102 155 172 123 110 126 200 217 204 192 197 198 192 158 119 130 134 136 190 220 258 242 226 291 346 96 265 246 245 264 269 269 317 360 13 83 106 51 47 33 35 27 33 26 18 26
228 226 231 238 220 202 192 185 195 249 257 199 150 129 149 170 143 287 276 259 247 231 225 209 193 231 248 158 156 151 131 84 46 145 157 159 145 135 93 46 87 77 238 158 143 58 91 178 227 227 194 185 198 193 161 123 114 115 136 169 226 222 250 260 228 310 347 178 261 309 278 266 261 265 311 11 170 123 309 78 44 33 50 22 38 22 4 7
224 218 227 236 213 192 191 190 193 240 260 228 178 173 205 194 165 207 173 291 271 241 234 236 216 254 244 160 173 162 120 101 189 209 172 156 143 169 162 87 135 176 204 125 115 63 113 225 239 220 146 133 141 166 164 166 148 120 124 164 239 227 251 288 305 331 15 175 264 7 335 272 262 246 247 13 171 184 324 139 165 173 128 69 57 28 12 13
226 220 223 228 199 185 201 202 201 243 249 231 214 201 200 218 158 129 121 270 292 257 214 212 211 227 216 197 187 168 159 186 189 231 186 157 137 186 145 128 154 142 150 179 164 153 184 248 246 172 134 124 91 127 146 140 162 165 153 170 230 215 190 270 288 322 18 142 248 9 330 280 271 247 191 16 144 152 63 118 127 144 149 147 172 175 118 63
227 224 221 214 193 190 207 206 213 241 239 239 242 219 180 146 160 155 118 296 286 277 224 206 202 202 196 194 179 174 195 197 176 209 183 162 137 158 161 156 140 135 193 198 178 185 215 250 217 126 140 149 131 132 143 149 221 228 205 200 213 202 204 231 267 315 349 21 77 107 330 293 284 271 249 286 110 142 69 114 109 106 160 155 164 183 188 171
226 228 223 206 191 193 201 206 222 228 223 240 245 221 184 160 161 166 93 23 282 289 278 214 206 208 185 154 165 170 163 210 217 201 177 169 150 141 182 157 140 188 198 173 169 216 243 238 122 112 136 156 149 172 179 172 202 265 229 208 210 207 208 220 5 30 13 338 286 141 283 287 314 293 253 282 344 270 6 142 193 261 230 162 174 204 222 152
229 234 226 203 188 188 194 212 224 213 210 239 240 209 187 179 159 156 94 37 272 268 242 193 181 185 172 145 158 145 86 249 245 135 163 177 165 128 149 146 87 201 176 143 164 223 247 235 119 131 146 159 171 218 219 172 149 271 244 203 203 195 182 179 144 114 169 247 270 118 175 251 313 305 267 281 296 272 276 236 228 240 232 207 209 221 221 170
231 237 226 201 184 185 192 212 199 183 188 244 226 189 186 180 166 172 79 11 271 198 141 213 176 159 166 170 161 137 162 236 115 91 146 170 178 91 138 178 130 194 164 124 207 243 181 142 111 144 140 153 187 231 217 161 137 239 253 161 166 170 177 180 163 174 227 255 320 14 147 209 288 287 285 327 277 271 255 234 230 227 218 217 223 222 209 201
230 234 218 195 187 192 198 192 173 179 203 230 190 176 178 171 170 159 80 300 268 117 117 245 73 111 131 111 93 114 198 202 114 207 353 99 162 59 139 201 166 167 166 147 211 264 149 167 184 168 150 179 204 219 186 160 154 242 199 117 136 151 162 153 146 179 315 353 294 292 135 200 262 271 325 20 292 271 247 217 212 215 212 211 217 217 207 201
222 225 208 193 194 200 208 217 187 194 221 201 165 169 166 164 167 89 77 231 250 87 84 117 121 59 77 101 51 62 48 28 109 233 8 90 109 61 152 201 143 138 123 142 206 253 113 206 196 157 161 200 200 270 176 164 184 194 118 93 77 71 81 91 117 122 53 9 249 237 184 202 269 279 311 39 271 262 245 207 206 205 203 205 211 208 197 196
213 217 214 201 197 201 211 228 225 205 207 184 162 159 155 154 135 98 207 232 148 101 56 98 149 124 126 132 359 360 77 30 66 63 38 93 38 36 116 148 96 120 47 12 228 242 325 277 204 148 172 183 135 64 94 128 143 139 107 76 58 44 47 53 66 91 75 270 250 230 198 190 267 274 236 202 224 214 167 185 210 197 199 206 207 200 190 191
213 213 215 205 200 202 207 223 220 203 187 174 159 150 149 109 66 166 219 239 69 125 130 130 198 144 150 152 169 177 106 49 161 120 112 135 69 53 101 127 80 80 5 333 290 301 345 338 250 197 151 125 101 67 42 63 106 112 92 96 93 10 16 26 359 51 156 251 259 259 209 173 221 256 239 230 235 197 167 184 193 192 199 201 197 195 190 190
214 211 211 207 206 207 208 215 204 196 183 169 159 144 140 92 204 215 229 20 109 205 158 164 193 171 173 152 102 150 130 107 175 141 138 144 153 171 178 175 154 87 304 235 239 332 300 229 242 250 168 138 115 85 40 25 59 89 98 116 113 346 5 355 296 246 225 246 264 283 204 194 228 247 248 239 231 214 202 194 190 193 194 189 190 192 186 189
211 211 211 209 211 210 212 215 196 190 185 167 160 122 112 176 223 218 214 213 217 201 126 121 126 139 154 138 131 166 126 140 179 154 132 122 152 209 256 201 159 126 177 195 174 244 274 285 221 154 244 188 152 146 143 178 176 154 150 142 136 133 142 249 259 259 258 257 288 286 239 243 259 263 255 241 233 228 211 217 230 208 192 185 188 185 183 194
209 210 212 213 216 216 215 215 196 188 184 165 159 135 151 210 229 193 194 211 215 46 70 99 97 106 146 168 213 181 141 192 174 139 117 122 145 208 238 232 186 117 99 142 168 177 206 280 204 174 206 187 176 177 158 146 155 178 161 134 147 160 170 214 217 213 245 277 324 301 232 194 198 270 279 263 295 315 294 259 270 255 194 173 171 176 186 200
214 210 212 212 215 216 215 214 201 188 181 160 160 179 187 220 227 168 190 195 157 70 46 67 100 115 178 239 279 206 179 207 170 135 147 163 174 197 197 206 200 157 134 162 209 166 179 265 243 217 259 171 174 182 124 116 133 200 129 110 172 191 151 162 195 173 177 309 305 240 228 222 201 268 300 322 318 307 346 7 157 201 180 157 173 191 194 204
209 205 209 207 208 210 211 212 199 185 177 156 176 196 209 223 208 157 187 172 158 144 113 72 93 123 206 251 249 228 215 135 156 155 190 194 210 204 191 207 197 187 177 166 189 165 147 276 275 17 6 171 175 176 129 135 170 152 140 171 209 181 119 114 236 70 79 276 266 196 234 292 307 284 315 360 324 283 69 50 177 193 179 174 194 199 198 206
197 199 205 205 205 206 208 209 194 179 175 173 194 205 220 223 191 164 179 150 145 139 136 187 189 158 192 201 200 206 195 128 163 173 194 195 223 194 192 240 196 193 202 177 187 194 150 254 279 123 153 256 215 139 82 24 132 125 182 207 180 133 96 104 219 353 51 242 270 210 213 246 184 244 318 354 295 257 200 165 198 197 192 195 204 203 203 204
192 194 207 209 205 201 204 205 190 177 175 192 205 215 220 215 190 171 165 125 132 146 164 207 202 173 184 187 191 185 180 184 173 179 186 195 245 189 175 211 195 194 205 183 186 231 145 193 285 229 159 255 345 111 80 358 77 136 187 180 117 149 170 112 172 217 178 238 282 259 213 222 189 201 218 212 235 234 201 178 202 207 203 203 205 205 204 199
186 190 222 211 201 196 198 198 189 179 193 199 209 219 214 214 208 177 168 152 145 169 192 210 198 179 182 172 164 168 182 184 167 176 189 184 233 199 174 193 199 197 200 177 173 225 140 179 259 299 193 184 41 152 172 207 249 74 112 123 88 151 165 154 160 164 165 209 270 271 238 230 217 197 180 193 213 208 180 186 212 212 207 205 204 201 199 198
178 197 230 193 190 189 189 190 188 191 211 205 214 220 197 198 210 192 184 178 173 187 197 200 189 181 177 172 166 165 181 184 169 183 210 187 202 217 195 191 177 183 185 173 182 159 122 187 218 282 315 162 187 213 194 184 173 148 153 168 180 117 116 177 199 133 135 164 209 271 282 245 229 201 179 193 210 194 181 196 211 213 209 211 210 203 202 202
173 216 206 173 179 178 175 183 205 201 208 214 221 226 209 176 174 193 206 194 195 206 164 176 192 185 168 172 189 173 166 179 184 190 220 203 197 221 208 185 158 148 135 161 202 191 157 180 170 162 186 194 224 251 222 193 178 173 182 181 181 168 132 164 242 199 124 175 178 207 269 253 218 194 187 196 220 209 205 208 212 215 213 213 214 209 207 201
175 222 176 165 171 169 162 191 219 192 215 218 216 221 196 159 161 179 196 192 189 194 138 155 184 180 173 174 178 171 164 175 192 194 217 211 202 212 205 170 151 153 150 162 197 182 139 127 140 178 211 217 248 296 301 210 155 140 202 186 178 182 156 170 221 214 146 214 141 118 266 270 246 211 209 218 240 241 234 228 226 229 220 215 216 211 202 185
187 203 155 163 169 165 160 216 204 198 226 218 218 211 162 161 173 170 181 191 185 163 163 184 179 187 198 170 152 173 178 185 193 193 210 217 208 218 192 159 151 158 162 158 168 163 130 123 149 230 305 318 316 333 356 20 93 140 235 183 170 194 175 173 198 161 156 198 134 121 250 256 229 220 226 237 240 237 240 232 230 235 221 210 208 198 186 177
183 169 142 170 171 167 168 207 197 207 220 213 223 216 183 170 178 177 184 190 184 155 162 187 188 186 194 159 156 181 188 196 202 197 197 204 203 186 142 165 162 162 176 186 164 171 184 166 144 139 347 338 332 318 305 314 231 211 216 172 180 171 122 106 132 105 206 197 150 179 244 243 209 227 262 294 276 253 264 240 216 217 213 204 197 191 190 185
162 131 14 180 175 172 186 202 197 207 210 209 219 213 207 217 193 188 185 179 179 170 166 187 177 158 158 157 148 178 191 196 195 192 190 194 202 54 123 178 174 172 201 296 164 173 186 182 162 171 194 202 209 212 210 199 187 214 183 167 192 178 158 162 144 155 226 194 155 202 246 264 295 338 305 302 16 270 263 239 212 214 208 200 191 187 190 189
205 177 146 187 188 193 204 200 202 212 207 208 217 213 211 216 213 186 185 188 194 184 175 147 142 148 164 175 171 187 202 208 100 171 192 190 205 346 85 164 157 160 161 38 140 164 157 198 197 202 213 204 196 205 184 142 152 196 197 181 194 196 183 173 144 183 200 163 199 225 213 250 268 235 225 261 240 216 235 221 216 221 210 208 199 192 196 197
213 225 180 169 195 213 208 202 206 210 209 205 203 205 211 214 212 178 195 203 192 180 186 79 162 188 193 184 189 194 188 186 163 180 188 177 177 341 24 104 109 83 62 79 120 131 115 226 214 214 233 212 169 172 171 157 173 192 193 191 197 196 186 186 198 203 154 144 239 235 148 213 250 213 190 233 227 217 234 220 215 214 204 205 195 191 201 203
193 248 231 184 109 206 211 206 199 204 211 210 204 208 213 214 211 203 200 195 167 175 189 214 206 210 204 188 192 193 178 187 202 193 176 152 147 126 47 53 98 8 66 96 57 102 142 220 211 191 227 209 135 136 167 162 171 186 191 202 205 198 190 196 211 207 166 190 243 233 165 219 244 196 189 215 195 191 216 210 198 188 181 187 183 192 204 204
147 31 306 338 22 233 230 200 185 201 208 206 210 216 215 215 216 211 181 126 172 191 196 210 216 212 206 196 193 194 188 193 207 202 171 156 164 148 122 141 234 352 75 117 133 139 163 225 189 168 229 235 171 159 168 170 178 195 211 216 213 206 196 199 214 211 193 223 254 249 212 234 234 172 197 214 178 167 181 155 152 164 179 185 188 204 212 207
148 162 211 37 22 308 325 59 171 198 207 201 204 209 211 214 215 211 180 167 194 196 197 213 217 204 197 197 196 205 206 200 204 198 168 163 179 174 176 184 156 94 123 142 158 194 197 220 139 144 230 246 183 154 172 190 190 213 234 227 201 180 190 205 220 207 187 244 256 253 252 255 229 165 190 203 151 127 131 161 172 188 198 190 199 219 221 211
102 115 124 130 189 216 276 11 170 201 212 205 200 195 205 214 210 202 200 203 201 191 196 212 213 195 187 196 202 213 213 198 189 185 171 174 183 178 183 181 147 145 168 165 154 171 190 201 83 130 214 230 159 154 173 157 95 254 252 231 169 172 205 203 206 193 195 224 232 234 249 252 210 163 178 189 171 167 199 210 203 213 210 197 210 224 222 219
78 73 86 130 186 203 208 44 163 202 219 220 216 188 195 212 201 188 199 263 122 165 205 213 207 186 182 200 209 214 198 150 137 146 147 143 134 131 149 161 156 158 170 171 164 160 167 164 134 167 199 227 77 144 145 100 52 260 252 210 178 208 220 185 190 211 210 213 215 224 237 230 156 160 187 199 194 204 224 220 209 219 216 210 221 225 225 231
Height
819 820 820 820 820 821 821 821 821 822 822 822 823 823 824 824 824 824 824 824 824 824 824 824 824 824 823 823 822 821 821 820 819 819 818 819 819 820 820 820 821 821 821 822 822 822 823 823 823 823 823 825 830 831 831 833 834 834 840 845 847 855 853 847 850 850 846 844 844 847 849 846 845 843 841 842 842 843 842 840 839 840 843 845 846 846 844 842
819 819 820 820 820 821 821 821 821 822 822 822 823 823 824 823 823 824 823 824 823 824 824 823 824 823 823 822 822 821 820 819 818 818 818 819 818 819 820 820 821 821 822 822 822 822 823 825 824 824 825 828 832 832 831 834 834 838 846 847 847 851 848 845 846 845 845 844 843 847 851 848 844 844 842 841 841 843 843 840 839 840 842 844 845 845 843 841
819 819 819 820 820 820 820 821 821 822 822 823 823 823 823 823 823 823 823 823 823 824 824 823 823 822 822 822 821 820 819 817 818 820 819 819 819 819 820 820 821 821 822 822 822 822 823 824 823 825 827 830 835 833 832 834 836 842 846 844 846 847 845 847 846 843 844 845 844 845 850 848 845 846 843 842 841 841 843 842 840 839 841 845 847 846 844 842
819 819 819 819 820 820 820 821 821 822 822 822 823 823 823 823 823 823 823 823 823 824 823 823 823 822 822 821 821 820 817 819 821 821 820 819 819 820 820 821 822 822 822 822 823 823 823 824 823 826 828 832 836 835 835 837 838 843 843 841 845 849 845 843 844 843 845 847 846 846 850 847 845 847 844 844 844 840 841 843 842 842 844 848 849 848 846 843
818 818 819 819 819 820 820 821 821 822 822 822 822 822 822 822 822 822 823 823 823 823 822 822 821 821 821 820 821 819 819 826 825 819 820 820 820 820 821 821 822 822 823 822 823 823 823 824 825 828 830 833 836 835 839 842 840 841 843 843 845 849 844 840 843 844 846 848 847 848 847 845 846 846 843 843 843 842 845 848 848 848 849 851 850 849 847 845
818 818 819 819 819 820 820 820 821 821 821 821 822 822 822 822 822 822 822 822 822 822 821 821 820 821 820 820 821 818 823 830 823 818 821 820 820 821 821 821 822 822 823 822 823 824 824 826 827 831 833 835 838 837 840 844 842 839 843 846 846 847 843 840 843 843 846 845 844 846 845 846 845 843 843 843 843 847 852 853 852 852 852 852 851 850 848 848
817 818 818 819 819 819 820 820 820 821 821 821 821 821 821 821 822 822 822 822 821 821 821 820 820 820 819 819 819 819 824 825 819 819 820 819 820 821 821 822 822 822 823 823 823 824 826 827 829 834 835 836 840 840 842 843 842 840 841 843 846 848 844 842 843 843 845 843 842 846 846 845 843 843 845 844 848 854 855 854 854 853 853 852 851 851 850 849
817 817 818 818 818 819 819 819 820 820 820 820 820 821 821 821 821 821 821 821 821 821 820 820 820 819 819 819 819 823 825 821 818 819 819 819 820 820 821 822 822 823 823 823 824 824 827 828 831 835 835 838 840 840 843 843 841 841 841 842 846 847 843 843 845 843 843 842 844 846 844 842 841 843 843 845 853 856 855 854 855 854 853 852 851 852 851 850
816 816 817 817 817 818 818 819 819 819 819 820 820 820 820 820 821 820 820 820 820 820 820 819 819 819 819 819 821 825 823 818 818 818 819 819 820 820 821 821 822 822 822 823 824 824 826 829 831 832 834 838 840 840 842 841 841 841 841 842 843 843 842 843 842 840 841 842 843 842 841 840 842 844 843 849 855 855 855 855 855 855 854 854 854 854 853 852
816 816 816 816 816 817 818 818 819 819 819 819 819 820 820 820 820 820 820 820 820 820 819 819 819 819 819 819 822 826 821 817 818 818 819 819 819 820 820 821 822 822 822 823 824 824 826 828 829 830 832 837 840 842 844 842 842 843 843 842 842 842 842 841 837 837 840 840 841 839 838 841 845 843 840 849 856 854 854 855 856 856 855 857 856 855 855 854
815 815 815 815 816 816 817 818 818 818 818 818 819 819 819 819 819 819 819 819 819 819 819 819 819 819 819 819 824 825 818 817 818 817 819 819 819 820 820 821 821 822 822 823 824 825 825 826 827 829 832 836 839 843 844 843 843 844 844 841 841 841 839 838 837 838 839 837 839 840 838 842 844 840 840 849 855 854 853 855 858 858 858 859 857 857 856 855
814 814 814 814 815 815 816 817 817 818 818 818 818 818 819 819 818 818 818 818 818 818 818 819 819 819 819 821 822 820 816 817 818 817 819 818 819 820 820 821 821 822 822 823 824 824 825 826 826 829 833 836 839 843 843 844 846 845 845 842 841 840 836 837 839 840 838 835 839 839 836 840 843 843 847 853 855 855 854 855 859 859 859 859 858 857 856 856
814 814 814 814 814 814 815 816 816 817 818 818 818 818 818 818 818 818 818 818 818 818 818 818 819 819 820 821 818 815 816 817 817 818 818 818 820 820 820 821 821 822 822 822 823 824 825 826 826 830 834 835 840 843 842 845 847 845 848 848 846 844 839 840 842 841 837 836 839 839 839 841 843 846 850 854 855 853 851 855 859 859 859 859 859 858 857 858
813 814 814 814 813 814 814 815 816 817 817 818 817 818 818 817 818 817 817 817 817 818 818 818 819 819 821 820 815 815 816 816 817 818 818 819 819 820 821 821 821 822 822 822 823 824 825 826 827 830 835 837 839 841 843 846 847 847 849 852 855 852 841 839 844 841 835 838 839 837 842 842 842 846 850 854 855 851 849 855 859 858 859 860 860 860 858 858
812 813 813 813 813 813 813 814 815 816 817 817 817 817 817 817 817 817 817 817 817 817 817 818 819 820 823 819 814 815 815 815 816 817 818 819 819 820 821 821 822 822 822 823 823 824 826 826 828 832 838 840 840 842 846 848 849 852 850 852 860 859 845 839 843 843 838 838 837 837 842 841 842 846 850 855 855 850 849 854 859 858 861 861 860 860 859 858
811 812 813 813 813 812 813 813 814 815 816 816 816 817 816 817 817 817 817 816 817 817 817 819 819 821 824 819 814 814 815 815 816 816 817 818 818 819 821 821 822 822 823 824 824 825 826 827 833 838 840 841 842 844 849 852 854 857 855 851 855 857 852 844 842 845 844 839 837 838 840 838 840 846 851 856 855 850 849 853 859 860 862 862 861 861 859 858
810 811 812 812 812 812 812 813 814 815 815 815 815 816 816 816 816 816 816 817 817 817 817 819 819 821 820 816 814 814 813 814 814 816 817 817 819 819 820 821 823 824 824 824 825 826 827 831 839 841 841 845 846 845 852 858 854 856 861 856 854 856 856 848 840 844 846 841 838 841 841 836 838 846 852 855 856 852 847 851 859 862 863 863 862 862 861 860
810 810 811 811 811 812 813 813 814 814 814 814 815 815 816 816 816 817 817 817 817 818 819 819 820 824 820 813 813 813 813 814 814 815 816 817 819 819 820 821 823 824 825 827 827 828 831 836 841 841 845 849 846 846 852 851 843 845 854 854 853 855 855 852 845 843 844 840 839 842 842 836 835 844 852 856 858 851 847 854 860 863 864 863 863 863 862 862
809 809 809 810 811 811 812 813 813 813 813 813 814 814 815 816 817 817 817 817 817 817 817 816 817 821 817 811 812 812 812 814 814 815 816 817 819 819 820 822 824 825 828 832 831 832 834 837 843 843 845 846 842 842 841 837 837 840 845 847 846 846 847 850 848 846 846 842 840 841 841 836 832 837 848 857 859 854 853 860 863 863 865 864 865 864 864 864
807 808 809 809 809 810 812 812 813 813 812 813 813 814 815 817 818 818 818 817 813 810 810 810 810 811 811 810 811 812 813 814 815 816 816 817 818 819 822 823 826 828 831 833 833 836 837 840 842 837 837 839 838 837 836 837 842 844 846 847 847 845 843 844 846 848 849 845 841 842 843 841 836 836 847 858 858 856 857 861 863 864 865 865 866 866 865 865
805 807 807 808 808 809 811 812 813 812 812 812 812 813 814 815 817 817 816 813 808 806 806 807 807 807 807 808 809 810 812 814 815 816 816 817 818 819 823 826 828 832 836 837 837 838 840 841 836 829 831 835 836 838 839 841 843 844 847 848 849 851 846 843 846 848 850 847 843 847 847 842 837 838 849 857 854 854 859 861 862 863 865 866 866 866 865 865
804 805 806 807 807 809 810 811 812 812 812 812 812 812 812 812 813 813 814 813 807 805 806 807 807 807 806 807 808 809 810 813 816 816 816 817 818 820 824 827 829 832 838 839 838 841 845 841 831 829 834 836 839 842 841 843 845 846 849 851 850 852 849 846 849 851 851 847 843 848 848 838 835 841 851 858 854 857 863 861 861 862 862 865 864 864 865 864
802 803 805 806 807 809 810 811 811 812 812 811 811 811 811 811 811 812 814 815 809 804 805 806 805 805 806 807 806 808 810 811 813 814 815 816 818 821 822 826 829 833 838 836 834 842 844 836 829 832 834 835 840 844 844 845 847 847 849 850 849 851 849 843 846 851 851 850 848 849 848 837 834 841 850 859 860 860 864 862 862 863 861 862 863 863 863 863
800 802 803 804 806 808 809 811 811 811 811 811 810 809 810 811 811 812 813 815 812 804 801 801 801 800 801 802 802 805 808 808 809 810 811 813 817 821 820 823 830 833 834 833 833 835 832 830 833 835 833 833 838 845 846 845 847 848 848 847 845 846 846 842 845 849 848 853 853 850 848 837 830 834 840 855 862 860 862 862 861 861 861 862 862 861 861 862
798 800 801 803 806 806 809 811 809 809 809 809 808 807 810 810 811 812 813 818 814 804 800 798 798 797 794 798 799 801 806 806 806 806 808 810 812 817 820 822 826 828 831 834 837 835 829 830 834 833 835 836 837 842 844 842 845 846 843 841 840 838 841 844 847 848 847 849 849 849 845 832 827 827 833 849 858 857 860 861 859 860 861 861 860 860 861 861
796 798 800 802 804 805 809 808 806 808 808 808 806 806 810 809 811 812 814 825 819 802 799 796 794 793 790 796 799 800 807 806 804 805 806 808 808 811 818 823 824 826 830 834 838 835 830 832 831 830 834 836 837 840 841 842 845 845 839 836 839 840 842 845 846 847 846 845 849 854 845 835 829 819 828 850 854 853 858 858 857 859 859 860 859 859 861 861
794 795 798 800 802 804 806 804 804 806 807 806 803 806 809 807 812 811 815 832 818 791 792 795 793 790 789 796 796 798 806 805 804 807 807 808 808 808 814 821 824 826 829 833 835 832 828 832 833 831 832 836 837 837 838 841 842 841 840 839 840 841 842 845 845 845 845 845 850 854 846 845 840 823 832 853 847 843 850 852 855 857 857 858 858 859 860 861
791 793 795 798 800 801 802 802 803 804 804 803 801 806 807 807 812 809 821 836 808 779 785 792 791 789 790 797 796 798 804 802 802 808 808 808 809 809 813 818 819 822 826 827 829 829 828 828 830 830 832 836 834 832 835 838 835 838 847 849 844 843 844 846 846 847 852 851 847 848 849 849 842 829 837 850 837 826 831 842 850 852 854 856 855 858 859 860
789 791 793 796 798 799 801 801 801 802 802 802 803 805 805 809 810 811 833 833 792 774 785 787 789 792 794 798 799 800 804 803 803 806 808 808 809 810 814 818 818 822 827 826 823 826 829 830 829 828 829 830 831 835 839 833 831 842 852 851 848 851 852 851 851 849 855 856 844 841 844 843 836 825 830 839 829 814 819 837 846 846 851 854 853 856 857 859
786 788 791 795 795 798 800 799 800 801 802 802 803 804 805 809 810 823 842 818 777 779 790 787 791 795 796 800 802 803 802 805 807 807 810 810 810 812 815 819 820 822 827 827 825 827 831 835 833 828 826 829 833 843 847 840 840 846 845 842 844 849 850 852 854 852 854 852 841 839 840 838 837 825 819 824 819 812 817 831 842 846 848 850 851 854 855 857
782 784 788 791 792 795 796 797 798 800 802 801 802 805 806 810 817 829 825 789 771 785 791 791 796 796 795 796 799 802 803 807 808 806 809 811 812 814 816 818 820 825 829 827 827 829 831 832 830 827 830 833 833 840 848 849 850 844 835 837 842 845 848 851 853 854 854 843 838 849 850 843 838 822 811 815 817 819 817 816 827 839 843 845 849 852 853 855
778 781 784 787 789 791 793 793 795 799 801 800 802 803 805 818 823 814 796 775 775 784 782 788 795 795 796 794 796 802 803 806 808 806 809 813 813 814 813 812 815 823 829 827 827 828 827 825 825 827 831 830 826 833 845 848 848 842 835 838 842 847 852 851 851 856 853 841 843 855 850 841 835 816 805 807 810 819 822 819 826 833 838 843 847 850 852 854
774 778 781 783 786 788 790 792 795 799 799 799 803 801 807 822 811 789 783 777 774 778 779 785 791 794 796 794 797 802 801 803 807 807 810 812 814 815 812 812 812 811 816 825 829 827 824 823 825 825 825 824 819 824 834 838 841 840 835 835 839 847 852 848 852 857 848 839 849 857 846 837 828 811 805 808 813 824 832 834 836 835 838 842 844 848 850 852
771 775 778 780 783 785 788 792 794 796 798 799 802 804 811 813 788 772 778 776 772 780 783 785 792 795 795 794 797 799 798 803 806 807 811 813 815 816 812 813 815 809 812 824 828 827 823 816 815 817 816 817 814 816 820 825 835 838 833 833 834 835 836 836 838 838 832 835 849 856 841 822 811 812 822 828 832 839 839 840 842 840 841 842 844 848 849 850
768 771 774 777 779 781 785 789 790 793 796 797 800 805 806 793 774 769 771 770 773 781 784 787 791 795 796 796 798 796 793 798 806 808 809 810 811 811 807 808 812 809 808 816 820 825 825 811 808 816 817 814 813 815 818 820 830 838 838 835 832 825 824 835 845 843 839 839 844 846 831 814 810 820 835 839 836 838 840 841 842 840 841 843 844 846 847 848
764 766 769 770 771 775 780 784 786 789 792 795 799 799 787 770 764 765 761 760 768 775 784 790 789 793 798 797 798 798 792 794 804 806 807 810 808 806 804 800 803 804 799 802 809 818 821 812 812 819 818 817 816 815 817 816 819 834 838 829 829 828 822 832 851 859 856 842 832 832 823 815 816 816 824 832 826 828 837 840 839 839 842 842 841 843 844 845
759 761 763 762 764 770 775 779 782 784 788 791 790 782 768 757 756 757 754 756 762 767 776 781 780 783 790 791 793 796 793 794 801 801 802 807 800 796 800 794 794 797 791 791 797 802 805 806 813 817 812 819 825 818 817 818 817 827 830 821 826 832 826 827 835 846 853 842 827 825 818 812 811 808 816 826 818 815 828 837 839 841 842 840 838 839 840 842
753 758 757 754 757 763 769 776 778 780 783 783 779 768 758 754 752 751 753 755 759 763 767 769 768 771 778 783 786 791 791 791 798 799 797 800 789 780 788 788 787 790 788 788 792 794 796 799 811 821 816 819 825 817 815 822 821 819 819 817 821 823 824 830 831 831 839 837 824 819 818 813 807 804 809 815 808 805 819 835 838 836 837 837 835 836 838 840
748 754 748 743 751 758 764 771 774 776 777 774 772 762 751 750 750 748 750 752 754 759 760 758 760 765 771 774 777 785 788 786 794 795 788 790 784 775 777 777 779 786 786 787 791 792 795 796 805 820 821 818 820 816 813 818 822 821 820 821 819 817 818 823 827 825 826 829 822 812 809 806 799 797 796 796 798 802 813 825 827 828 832 831 830 832 834 836
742 746 736 732 745 754 761 770 770 769 767 762 760 752 744 746 749 747 747 747 748 752 753 751 754 759 766 771 772 776 781 783 789 788 779 779 777 773 774 770 773 784 788 788 790 792 796 796 801 817 824 819 813 809 805 805 812 817 817 820 820 819 820 821 822 823 820 820 820 816 808 798 795 800 794 787 795 804 807 809 814 823 828 827 828 829 829 832
735 738 727 726 738 748 759 768 764 759 757 753 749 744 742 744 745 747 747 745 745 747 748 748 748 753 760 766 768 770 775 780 783 781 776 774 769 765 766 764 768 780 789 792 791 788 792 795 799 812 820 812 803 803 805 802 801 803 804 808 809 810 816 819 821 823 823 818 814 816 809 791 795 812 807 799 806 811 811 809 812 820 824 825 828 828 828 831
727 727 720 722 731 741 754 759 752 750 750 743 736 736 739 741 742 744 746 746 746 747 748 748 747 750 754 756 760 764 768 774 779 777 770 767 762 757 759 762 766 772 778 783 784 782 786 792 797 804 810 807 804 811 817 811 803 801 801 801 801 801 803 806 811 817 823 821 818 822 813 794 802 821 816 812 816 816 819 818 816 820 823 825 828 828 831 833
718 718 718 721 724 732 745 748 745 745 740 731 728 731 735 738 739 741 742 744 744 745 747 747 746 748 749 750 755 759 761 764 769 768 763 762 759 757 760 762 765 768 769 773 778 780 783 787 793 799 804 806 808 812 816 814 806 800 800 802 802 800 797 799 805 809 813 814 816 824 814 794 805 822 819 819 821 818 821 821 818 821 823 825 828 829 831 833
712 716 719 720 719 725 733 734 733 734 730 727 730 732 733 735 735 735 737 739 740 742 743 744 744 744 744 746 750 752 753 754 757 759 760 759 758 761 764 763 763 766 767 767 770 773 777 781 788 798 805 808 809 808 808 809 806 799 799 802 800 798 801 807 811 812 811 807 807 812 801 787 801 819 817 817 818 812 815 820 820 822 821 823 827 828 829 831
712 715 718 719 717 718 719 716 717 722 724 727 729 728 730 732 730 729 731 734 736 737 738 739 740 740 743 747 748 749 749 748 751 756 758 757 759 764 766 764 762 762 764 765 764 765 771 775 778 785 792 796 796 794 792 795 800 801 801 802 799 798 801 802 805 810 810 807 804 800 792 786 796 807 806 806 807 802 807 816 818 819 820 822 824 826 827 829
710 713 716 719 718 715 713 711 714 718 721 724 725 723 724 726 726 727 729 730 732 733 734 737 738 739 743 746 747 750 750 750 753 755 755 755 759 766 768 766 765 763 764 766 765 766 770 772 770 768 770 772 771 773 777 780 786 792 794 795 795 797 798 796 800 803 802 806 803 791 788 789 789 794 798 797 797 796 800 809 814 816 819 820 822 824 825 826
708 708 710 712 714 715 714 713 713 712 713 717 718 717 718 720 723 728 728 725 726 730 734 737 737 737 740 742 746 748 749 751 754 753 753 755 759 767 771 768 766 766 766 767 767 768 771 772 770 766 766 768 765 768 776 776 775 779 784 789 793 798 800 797 796 792 793 803 798 784 789 791 783 787 793 789 790 795 798 803 808 813 816 818 820 822 823 824
708 707 706 706 707 709 707 707 708 707 708 712 714 713 715 719 720 722 725 725 725 726 732 736 734 730 731 735 740 745 748 751 752 750 751 756 760 766 770 767 768 768 767 768 770 769 769 770 769 768 770 771 771 774 777 775 774 776 778 781 785 792 799 798 793 789 789 791 785 780 787 787 780 784 788 785 788 792 795 801 806 810 814 816 818 819 820 821
710 711 710 708 707 706 703 701 704 707 706 709 712 711 712 715 715 714 719 726 728 725 725 727 727 725 727 730 734 739 742 743 745 745 748 754 758 761 764 765 768 771 768 767 770 771 769 769 769 768 769 770 774 779 779 775 776 778 777 776 778 785 794 794 790 789 790 786 780 782 787 783 781 785 785 788 794 796 798 805 807 808 811 812 813 814 815 818
707 710 711 711 711 711 707 703 705 707 705 706 707 706 707 709 709 710 714 719 721 723 721 718 717 720 724 728 730 730 728 727 731 736 741 748 752 754 756 756 763 772 771 767 770 771 770 771 771 771 771 772 776 780 780 776 777 777 774 775 780 787 795 798 794 793 797 794 787 790 791 786 785 786 786 793 800 800 800 802 803 805 807 807 808 808 811 815
703 705 707 711 713 713 711 708 706 705 705 705 703 703 703 703 702 706 711 711 711 714 717 714 713 719 724 726 725 721 718 720 725 730 733 737 741 744 748 752 757 765 770 771 770 769 772 776 777 775 772 771 777 782 782 784 789 786 777 777 786 787 786 791 794 791 790 788 789 795 793 784 784 787 789 794 798 798 796 797 801 805 806 806 806 806 809 812
703 704 706 710 713 714 714 712 710 708 706 705 703 703 703 702 702 704 709 713 713 713 715 712 713 720 724 723 720 716 717 723 730 734 736 737 739 742 745 749 752 756 764 770 770 770 773 773 775 776 770 773 787 790 786 791 793 778 763 765 775 777 776 784 790 787 782 779 783 787 780 774 782 789 790 793 797 797 795 796 799 800 803 806 806 806 808 808